#timestamp,LO_Frequency,Hit,StdDev 
1656590415.4,286046996.8,N
1656590435.2,286046997.2,N
1656590455.1,286046996.7,N
1656590456.0,286046996.7,N
1656590475.8,286046996.8,N
1656590495.7,286046996.6,N
1656590515.5,286046997.1,N
1656590535.3,286046999.4,N
1656590555.2,286046996.6,N
1656590575.0,286046999.0,N
1656590575.9,286046999.0,N
1656590595.7,286046999.5,N
1656590615.6,286046999.2,N
1656590635.4,286046999.6,N
1656590655.3,286046999.0,N
1656590675.1,286046998.9,N
1656590695.8,286046999.1,N
1656590715.7,286046999.2,N
1656590735.5,286046999.3,N
1656590755.4,286046996.5,N
1656590775.2,286046999.3,N
1656590795.0,286046998.2,N
1656590795.9,286046998.2,N
1656590815.8,286046998.7,N
1656590835.6,286046998.6,N
1656590855.4,286047000.8,N
1656590875.3,286047000.8,N
1656590895.1,286046998.1,N
1656590915.9,286047000.8,N
1656590935.7,286047000.7,N
1656590955.5,286047001.0,N
1656590975.4,286047000.0,N
1656590995.2,286047000.7,N
1656591015.0,286047001.0,N
1656591015.9,286047001.0,N
1656591035.8,286046998.6,N
1656591055.6,286047000.5,N
1656591075.5,286046999.9,N
1656591095.3,286047000.5,N
1656591115.1,286047000.4,N
1656591135.9,286047000.2,N
1656591155.7,286047001.1,N
1656591175.5,286047000.7,N
1656591195.4,286047000.5,N
1656591215.2,286047001.0,N
1656591235.1,286047000.8,N
1656591236.0,286047000.8,N
1656591255.8,286047000.3,N
1656591275.6,286047000.6,N
1656591295.5,286046999.7,N
1656591315.3,286046999.7,N
1656591335.1,286047000.5,N
1656591355.9,286047000.1,N
1656591375.7,286047000.1,N
1656591395.6,286047000.6,N
1656591415.4,286047000.9,N
1656591435.2,286047000.8,N
1656591455.1,286046999.9,N
1656591456.0,286046999.9,N
1656591475.8,286046999.7,N
1656591495.6,286047001.0,N
1656591515.5,286047002.2,Y
1656591535.3,286047000.4,P
1656591555.2,286046999.9,P
1656591575.9,286046999.8,N
1656591595.7,286047000.1,N
1656591615.6,286047000.1,N
1656591635.4,286046999.7,N
1656591655.3,286047000.1,N
1656591675.1,286046999.7,N
1656591676.0,286046999.7,N
1656591695.8,286047002.8,Y
1656591715.7,286046999.7,P
1656591735.5,286047000.4,N
1656591755.4,286046999.9,N
1656591775.2,286047002.5,Y
1656591795.0,286046999.8,P
1656591795.9,286046999.8,N
1656591815.8,286046999.9,N
1656591835.6,286047000.3,Y
1656591855.5,286047002.8,P
1656591875.2,286046999.8,N
1656591895.1,286046999.8,N
1656591896.0,286046999.8,N
1656591915.8,286047002.7,N
1656591935.6,286047002.5,N
1656591955.5,286047002.6,N
1656591975.3,286047000.1,N
1656591995.1,286047000.2,N
1656592015.9,286047000.3,N
1656592035.7,286047002.8,N
1656592055.6,286047002.8,N
1656592075.4,286047001.5,N
1656592095.2,286047002.7,N
1656592115.1,286047002.5,N
1656592116.0,286047002.5,N
1656592135.8,286046999.7,N
1656592155.6,286047001.6,N
1656592175.5,286047001.9,N
1656592195.3,286047002.5,N
1656592215.2,286047002.6,N
1656592235.9,286047002.6,N
1656592255.7,286047002.1,N
1656592275.6,286047002.1,N
1656592295.4,286047002.2,N
1656592315.2,286047002.2,N
1656592335.1,286047001.9,N
1656592336.0,286047001.9,N
1656592355.8,286047002.5,N
1656592375.7,286047002.6,N
1656592395.5,286047002.1,N
1656592415.3,286047002.4,N
1656592435.2,286047002.6,N
1656592455.0,286047002.1,N
1656592455.9,286047002.1,N
1656592475.8,286047001.6,N
1656592495.6,286047001.9,N
1656592515.4,286047002.1,N
1656592535.3,286047002.2,N
1656592555.1,286047002.1,Y
1656592575.8,286047000.0,P
1656592595.7,286047000.3,N
1656592615.5,286047000.7,N
1656592635.4,286046998.2,N
1656592655.2,286046998.1,N
1656592675.0,286046998.3,N
1656592675.9,286046998.3,N
1656592695.8,286046998.2,N
1656592715.6,286046998.6,N
1656592735.5,286046998.1,N
1656592755.3,286047001.1,N
1656592775.1,286046998.3,N
1656592795.9,286047001.0,N
1656592815.7,286047001.1,N
1656592835.5,286047000.5,N
1656592855.4,286047000.4,N
1656592875.2,286047001.1,N
1656592895.1,286047001.1,N
1656592896.0,286047001.1,N
1656592915.8,286047000.2,N
1656592935.6,286047000.2,N
1656592955.5,286047000.3,N
1656592975.3,286047000.1,N
1656592995.1,286047000.2,N
1656593015.9,286046999.9,N
1656593035.7,286047000.1,N
1656593055.6,286046999.7,N
1656593075.7,286047000.6,N
1656593095.5,286047000.3,N
1656593115.3,286047000.0,N
1656593135.2,286047002.7,N
1656593155.0,286047000.3,N
1656593155.9,286047000.3,N
1656593175.7,286047000.4,N
1656593195.6,286047000.0,N
1656593215.4,286047000.4,N
1656593235.3,286047000.4,N
1656593255.1,286047000.3,N
1656593256.0,286047000.3,N
1656593275.8,286047000.1,N
1656593295.7,286047000.5,N
1656593315.5,286047000.3,N
1656593335.3,286047000.7,N
1656593355.2,286047000.0,N
1656593375.0,286047000.6,N
1656593375.9,286047000.6,N
1656593395.8,286047000.5,N
1656593415.6,286047000.5,N
1656593435.4,286047000.3,N
1656593455.3,286047000.3,N
1656593475.1,286047001.0,N
1656593495.9,286047000.4,N
1656593515.7,286047000.8,N
1656593535.5,286047000.6,N
1656593555.4,286046998.1,Y
1656593575.2,286046998.5,P
1656593595.0,286046998.4,N
1656593595.9,286046998.4,N
1656593615.8,286046999.2,N
1656593635.6,286046998.7,N
1656593655.5,286047001.0,N
1656593675.3,286046998.1,N
1656593695.1,286047000.5,N
1656593715.9,286047000.5,N
1656593735.7,286047000.6,N
1656593755.5,286047000.6,N
1656593775.4,286046999.9,N
1656593795.2,286046999.8,N
1656593815.1,286046999.7,N
1656593816.0,286046999.7,N
1656593835.8,286047000.1,N
1656593855.6,286047000.5,N
1656593875.5,286047000.5,N
1656593895.3,286047000.7,N
1656593915.1,286047001.1,N
1656593935.9,286046998.1,N
1656593955.7,286047000.7,N
1656593975.6,286047000.8,N
1656593995.4,286047001.0,N
